{"data":{"norad_id":48123,"epoch":"2026-05-25T01:26:44.924352Z","epoch_age_seconds":63124,"freshness":"FRESH","line1":"1 48123U 21027AH  26145.06024218  .00000639  00000+0  32336-4 0  9999","line2":"2 48123  53.1580 157.4163 0001256  82.4350 277.6794 15.31705724284387","mean_motion":15.31705724,"eccentricity":0.0001256,"inclination_deg":53.158,"raan_deg":157.4163,"arg_perigee_deg":82.435,"mean_anomaly_deg":277.6794,"bstar":3.2336e-5,"rev_number":28438,"period_min":94.012836632841,"perigee_km":469.86271552514,"apogee_km":471.58314914014,"semimajor_km":6848.8599323326,"source":"CELESTRAK","updated_at":"2026-05-25T13:38:16.646404Z"}}